Theta_e
316 316 317 317 316 316 316 316 316 316 316 313 314 315 316 315 311 312 311 312 312 312 313 313 312 313 314 312 311 308 314 314 312 311 313 307 310 304 302 304 302 302 302 301 302
312 313 313 314 315 315 315 315 316 315 315 316 313 314 315 314 315 311 311 311 312 312 312 312 311 312 311 312 310 310 311 314 310 308 312 309 309 307 306 304 304 300 298 298 300
309 310 311 311 312 313 314 314 314 315 314 315 314 314 313 315 314 310 311 311 311 312 312 312 311 311 312 312 311 309 310 312 312 310 310 311 309 304 306 307 306 305 299 297 297
309 309 309 309 310 311 311 312 313 313 314 314 315 314 313 315 315 313 312 311 311 312 312 311 309 311 312 313 311 314 311 311 312 312 310 311 305 307 304 309 302 301 299 297 297
310 309 309 309 309 309 309 310 311 311 312 313 314 314 315 314 312 313 313 311 311 312 311 309 311 310 314 311 311 312 312 312 310 310 310 306 308 308 304 303 299 297 297 297 297
311 311 310 310 309 309 309 309 309 310 311 313 314 313 314 314 313 313 311 311 310 310 310 309 309 309 310 313 312 310 311 311 309 310 309 310 308 307 305 296 297 296 297 296 296
312 312 312 311 310 310 309 308 308 309 310 313 313 314 314 311 313 311 310 310 310 310 309 309 310 310 310 310 309 309 311 309 308 309 310 307 309 307 304 297 298 296 295 295 295
312 311 312 312 311 310 309 308 308 308 310 314 312 314 311 314 313 311 310 309 309 310 310 309 310 308 309 308 308 311 309 312 311 308 309 308 313 309 300 298 300 296 294 294 294
312 311 310 311 311 310 309 308 308 310 314 312 314 313 312 313 312 312 309 309 309 309 309 310 309 307 308 310 312 309 315 312 311 306 309 307 312 308 299 297 300 297 295 294 294
312 310 309 309 310 310 309 307 310 314 314 314 313 313 310 312 312 312 310 309 308 309 311 309 306 309 307 311 312 312 313 311 310 309 307 308 308 309 303 299 301 299 296 295 294
311 311 310 307 310 309 308 309 308 304 309 311 310 310 311 312 312 310 309 309 309 310 311 309 312 312 310 309 312 312 312 312 308 305 307 307 307 309 308 301 302 300 296 295 295
310 310 310 309 311 309 309 308 309 307 308 307 305 305 308 312 313 309 308 309 309 310 309 311 312 310 309 308 309 309 310 309 306 305 304 305 307 307 307 307 308 304 299 297 295
310 310 309 310 312 309 308 308 308 309 308 307 306 308 309 311 310 310 305 306 309 308 309 310 311 307 310 308 309 307 308 308 309 304 302 301 305 303 303 303 303 302 301 298 296
311 310 309 311 310 310 308 307 309 307 302 303 306 310 311 309 310 305 305 306 308 308 307 310 308 310 309 309 307 311 306 307 307 306 309 303 311 305 305 305 304 303 299 299 296
311 311 310 310 311 308 308 307 307 302 302 304 307 307 306 309 307 307 304 307 307 308 309 311 307 308 309 309 306 310 304 304 304 304 302 304 304 307 299 304 306 305 300 298 295
312 312 310 310 311 310 308 306 305 304 306 305 309 310 310 309 307 305 305 304 305 309 307 308 305 305 308 303 304 302 303 301 297 299 306 307 307 306 303 304 304 302 301 298 294
314 313 311 310 310 309 307 304 305 302 303 304 309 308 310 309 309 307 306 306 309 311 311 310 306 304 304 307 305 304 308 311 310 307 312 299 301 308 304 301 303 304 302 296 293
314 313 311 310 310 311 304 307 307 303 303 307 309 309 310 308 308 308 307 308 306 309 309 312 312 304 303 309 309 304 308 312 310 308 308 297 306 308 301 303 299 296 295 292 292
315 313 311 310 310 310 303 309 303 305 304 305 309 311 310 309 309 307 307 307 308 308 313 311 312 303 303 303 305 304 306 306 305 288 303 308 306 304 302 300 297 295 292 292 292
314 312 311 312 310 308 302 306 304 305 303 307 305 306 305 308 307 308 307 306 309 307 309 311 314 305 300 300 298 302 301 306 305 310 305 308 308 309 306 305 302 299 296 295 292
314 314 313 312 310 308 311 305 304 305 305 306 304 303 304 305 308 307 308 307 307 308 308 309 313 308 301 302 303 301 302 301 304 305 307 307 309 304 305 304 303 303 298 295 292
314 316 307 310 313 313 313 307 307 305 304 306 306 304 304 305 308 307 307 308 306 305 309 307 311 315 307 299 298 300 304 304 308 308 302 304 310 304 306 303 302 302 298 294 291
315 314 305 310 315 314 308 308 308 307 305 307 307 307 305 304 307 307 307 306 305 306 307 306 310 314 314 303 299 301 300 302 301 301 308 307 310 305 302 301 300 299 296 294 292
314 314 307 307 311 313 313 312 311 307 308 305 306 306 308 308 307 308 307 306 304 306 308 309 309 314 311 309 303 303 300 302 304 309 309 308 308 308 308 306 304 298 293 294 291
315 313 307 308 310 313 312 311 314 313 307 306 308 308 307 308 308 308 308 307 304 304 305 307 312 311 311 310 305 304 304 304 304 306 308 309 307 308 308 308 307 307 306 301 291
318 312 310 310 310 311 313 313 313 313 309 310 310 309 308 309 309 310 308 308 311 303 303 302 310 309 312 309 306 307 306 308 306 306 305 305 305 306 307 307 307 306 305 304 297
315 314 311 312 311 311 311 311 313 312 312 309 310 310 310 308 309 309 309 309 309 309 307 304 308 308 313 309 308 308 309 309 308 308 308 309 308 306 306 306 306 305 305 305 303
Wind_Speed
14 15 17 19 20 21 21 21 21 22 23 13 4 3 2 5 3 3 2 2 2 3 2 4 2 6 5 3 3 3 4 1 4 5 3 4 3 1 1 4 3 5 3 2 23
14 15 16 17 19 20 20 20 20 21 21 17 11 5 5 5 3 2 2 1 1 2 1 3 2 4 4 2 3 4 3 6 4 4 2 4 4 6 3 2 4 4 3 8 30
13 14 16 17 17 18 19 21 21 20 20 19 12 7 5 6 2 4 3 1 2 2 3 3 4 2 3 2 2 2 4 3 3 4 3 4 3 5 6 5 10 10 9 15 18
12 13 15 16 17 18 19 20 21 21 20 19 12 7 2 1 4 5 4 1 2 2 3 3 4 3 3 3 1 1 2 3 3 3 4 4 6 4 8 5 0 6 16 18 15
14 14 15 16 17 19 19 20 21 22 21 19 9 4 1 1 6 5 5 3 0 1 4 3 3 3 2 3 2 3 2 2 4 4 3 4 6 6 9 8 1 7 14 16 16
15 16 17 18 19 20 20 21 22 23 22 18 7 3 2 4 3 5 4 4 1 2 3 4 4 3 4 2 2 3 2 5 3 3 3 4 3 1 2 5 6 9 14 14 16
17 17 19 20 21 22 22 22 23 24 23 15 5 4 3 10 5 5 5 4 2 2 4 3 6 1 5 2 0 2 3 5 4 2 4 5 7 10 4 4 7 10 11 12 17
18 19 19 21 21 24 25 24 24 24 20 8 3 4 6 3 6 5 6 6 5 6 8 6 5 5 2 3 4 1 3 3 2 4 2 5 10 7 6 7 11 11 11 14 16
19 19 20 22 23 25 26 26 26 20 8 2 4 3 7 2 4 7 6 6 7 7 7 6 4 3 3 4 4 5 3 4 7 7 3 6 10 5 5 7 10 11 14 14 12
18 19 20 21 20 22 26 25 15 3 2 3 2 2 2 3 4 6 6 7 3 5 4 5 5 3 3 3 5 6 4 5 6 4 4 5 16 17 7 9 17 14 13 14 16
17 18 20 20 15 18 23 8 6 4 2 7 3 3 2 1 3 3 5 8 4 3 5 1 2 9 12 8 2 3 4 7 5 4 4 10 15 19 19 9 15 15 12 16 20
16 18 19 19 13 12 8 4 3 3 7 6 5 6 7 4 2 4 8 6 5 7 5 3 11 9 5 4 5 4 4 7 7 1 6 9 17 17 16 20 18 18 13 16 12
15 16 19 18 12 5 4 2 2 2 2 8 5 4 3 7 6 5 11 4 5 6 8 8 4 6 6 4 6 5 6 5 8 5 3 7 9 7 6 6 13 11 11 12 17
16 15 16 16 6 6 1 1 2 1 2 7 5 3 3 3 4 1 6 4 2 10 10 7 2 7 4 6 8 4 6 2 3 3 4 4 14 3 6 11 8 9 10 13 14
14 14 13 8 11 1 1 1 1 1 5 5 3 2 3 5 4 1 1 1 6 7 7 8 7 5 5 8 9 6 3 4 1 3 3 4 5 4 4 8 16 10 9 10 11
12 11 10 7 6 4 3 3 2 4 8 4 4 4 3 2 2 1 2 3 1 4 2 6 1 6 6 3 2 6 4 4 3 2 2 8 9 6 6 9 9 7 6 7 8
15 11 9 7 3 3 4 2 2 6 4 5 5 4 2 6 4 6 6 6 7 4 6 1 5 3 3 5 3 2 5 4 5 2 8 4 2 15 6 11 12 11 7 7 7
20 16 13 10 10 5 5 4 9 7 8 3 3 2 7 8 5 7 5 5 7 1 3 5 11 9 6 8 8 7 9 6 9 4 15 2 8 10 15 13 7 7 7 6 7
23 22 14 17 14 7 2 6 10 9 9 10 3 4 5 5 6 6 9 7 10 17 10 8 9 2 2 3 3 6 6 2 5 2 3 6 14 6 7 10 7 10 7 11 9
25 15 15 22 20 9 2 19 8 9 7 4 15 12 12 9 9 9 10 6 7 16 6 6 5 3 3 3 1 5 5 3 2 3 6 12 22 18 10 15 11 11 15 13 7
21 4 12 34 27 3 8 10 6 8 7 9 12 8 9 10 9 8 10 5 9 6 9 6 7 3 4 10 13 4 4 2 2 4 6 10 19 5 7 10 11 14 9 10 9
6 5 17 41 8 5 13 8 7 6 5 10 5 10 15 10 8 8 11 11 10 9 11 7 5 8 14 1 1 3 11 13 6 8 5 2 25 2 1 7 7 8 8 6 7
3 4 18 27 8 11 4 4 5 5 8 10 11 8 6 8 7 9 10 5 11 10 11 9 4 2 8 2 4 6 8 8 2 1 21 7 25 5 7 8 9 8 8 9 9
4 5 3 6 8 16 17 10 8 6 14 5 6 7 3 5 9 10 7 7 6 6 6 14 7 11 21 18 6 6 8 18 21 16 17 27 34 38 32 21 13 8 10 13 12
4 3 9 6 16 17 16 9 21 12 7 13 7 23 16 15 17 21 12 1 3 6 2 8 10 12 21 25 6 4 8 18 20 31 21 28 22 38 32 21 25 19 21 12 11
6 4 3 5 14 23 22 18 26 24 12 11 21 18 21 24 25 23 19 5 6 3 6 1 9 6 23 23 6 6 20 26 24 34 21 22 32 43 28 22 27 25 22 21 14
12 10 4 5 13 15 22 29 27 26 16 23 23 17 19 28 27 25 14 9 9 7 8 7 8 9 24 22 11 5 36 29 33 35 22 28 41 31 28 26 31 26 24 25 19
Wind_Direction
12 12 13 13 12 12 13 15 15 12 10 5 334 243 350 14 356 226 229 131 106 4 17 161 79 129 106 76 77 136 71 217 233 161 241 158 154 23 23 124 232 203 172 265 169
360 0 1 3 3 2 2 4 8 8 6 360 351 282 264 323 313 276 187 119 48 29 110 138 103 129 63 73 22 87 114 217 193 199 259 188 184 172 165 176 242 254 213 157 160
350 350 349 349 352 353 353 352 356 1 1 357 347 331 268 295 345 220 185 34 352 7 68 93 103 97 88 102 2 175 174 212 229 216 184 175 220 159 159 231 221 209 166 163 168
339 340 340 340 340 342 342 344 345 350 353 354 343 329 295 235 224 177 181 193 9 24 50 58 43 70 100 126 255 165 217 203 278 211 158 205 131 215 198 224 42 211 167 169 180
330 331 331 330 331 333 334 334 336 339 343 346 337 310 287 342 258 190 200 215 175 232 63 89 58 130 136 151 149 178 221 226 282 268 242 137 233 234 241 229 174 144 163 180 184
321 325 324 325 325 326 327 328 328 330 334 336 322 252 158 241 198 194 223 212 167 136 87 55 147 173 105 118 150 167 274 271 299 259 247 217 282 357 233 141 162 168 186 189 189
319 317 319 321 322 324 323 323 324 322 325 325 292 202 140 237 202 200 196 183 119 130 115 108 127 117 136 134 195 123 311 316 232 211 245 165 279 231 213 174 189 199 194 194 201
317 317 318 317 320 323 322 322 320 315 317 310 220 185 241 226 205 197 160 127 109 96 108 115 107 105 72 122 31 94 61 12 226 163 223 156 269 264 174 173 220 211 203 202 208
320 316 313 314 317 321 322 323 316 313 312 197 174 170 265 203 202 196 186 164 127 94 86 100 66 89 49 90 5 357 250 233 299 203 165 178 268 239 167 209 236 219 213 209 212
320 321 318 311 320 320 323 326 314 322 106 132 74 35 239 223 163 169 166 153 115 113 76 55 55 78 44 101 240 226 237 247 239 218 208 222 257 274 223 216 242 227 215 211 215
315 320 321 319 327 327 332 337 7 350 42 194 201 243 267 186 174 168 161 136 110 83 177 7 119 214 212 201 175 170 201 235 251 232 219 245 251 258 272 241 254 242 211 213 221
313 319 321 325 330 326 334 79 159 158 309 266 237 277 231 183 261 218 169 158 157 197 128 56 231 204 139 152 159 170 212 259 283 223 194 271 261 263 251 258 255 251 226 223 217
304 315 321 325 329 335 350 112 142 152 206 292 217 208 203 168 218 230 159 149 162 177 190 173 226 106 135 150 165 206 194 231 237 333 249 301 265 236 286 251 267 239 226 212 211
299 310 323 330 306 341 28 62 152 169 26 265 234 250 104 138 261 90 184 147 202 213 159 227 224 159 164 213 151 229 209 222 288 16 257 18 294 215 242 273 257 246 208 222 206
289 301 320 326 304 248 163 116 143 149 293 275 207 136 135 168 130 261 176 84 190 186 138 237 165 163 186 218 162 225 127 141 124 216 12 244 267 225 12 272 264 264 225 219 205
281 283 300 294 281 271 272 155 108 43 246 286 154 186 136 182 181 123 138 54 120 141 252 255 346 170 199 70 139 135 97 70 65 105 259 226 202 168 184 210 255 258 234 222 199
261 256 240 252 218 345 232 123 53 198 297 234 211 173 192 187 206 179 169 183 178 133 227 261 212 171 160 100 24 105 71 324 315 338 247 135 238 257 234 228 220 231 231 220 213
244 232 223 226 238 252 155 56 223 186 194 96 123 114 196 161 220 181 159 219 240 112 126 186 265 178 185 197 180 174 167 170 242 239 286 55 243 272 220 239 217 251 259 245 220
227 212 201 211 217 211 137 208 217 174 188 165 109 175 237 241 194 158 208 203 205 177 195 182 267 112 195 145 147 182 190 170 98 137 309 243 264 281 225 253 246 241 231 244 225
200 200 200 209 191 164 126 237 213 189 148 153 200 184 203 198 175 188 179 195 216 194 186 219 278 187 149 135 70 176 157 84 4 257 253 267 274 272 217 236 232 244 228 235 221
197 210 196 194 162 179 218 227 226 208 167 174 217 234 222 195 201 204 226 230 198 183 189 160 183 214 133 206 176 142 198 192 169 164 200 268 269 194 204 202 212 236 225 213 215
184 231 172 162 174 199 227 193 191 223 192 238 204 221 224 194 213 228 219 222 157 152 163 205 169 225 227 353 113 184 197 179 197 230 240 215 268 60 220 193 219 246 224 214 216
204 185 184 177 205 207 242 265 226 188 202 197 222 199 180 205 233 194 226 179 153 161 169 175 220 255 261 355 358 212 197 215 256 269 231 199 258 160 203 230 211 234 230 238 227
167 163 200 221 233 213 213 224 228 207 233 221 223 194 168 234 234 251 215 200 194 198 353 167 175 207 237 249 132 189 199 214 217 240 237 233 259 275 259 271 262 241 234 232 220
207 226 171 186 230 228 218 211 229 221 209 195 244 233 220 236 239 242 256 243 98 17 353 174 236 230 251 261 226 191 240 221 217 238 228 254 247 257 272 265 270 266 266 256 216
249 180 190 221 214 224 220 224 235 237 180 212 219 229 228 239 239 259 238 164 216 238 186 178 249 263 255 259 242 237 255 258 250 251 256 260 263 257 279 285 282 275 271 270 236
241 233 209 205 209 208 218 227 230 237 240 234 227 221 231 229 227 245 258 189 207 214 230 192 239 252 259 266 259 264 247 261 265 266 261 259 257 273 265 264 261 264 269 267 262